Lid_Strength_Index
4 3 3 3 3 2 2 2 2 2 1 0 -0 -0 -0 -1 -1 -1 -1 0 -1 -1 -2 -2 -1 -2 -2 -2 -2 -2 -2 -2 -1 -1 -1 -1 -1 -1 -1 -0 0 1 0
4 3 3 3 3 2 1 1 1 1 0 -0 -0 -0 -0 -1 -1 -1 -1 -1 0 -1 -1 -1 -1 -2 -2 -2 -2 -2 -2 -2 -1 -1 -1 -1 -1 -0 -0 0 0 1 -0
4 3 3 3 3 2 1 1 0 -0 -0 -0 0 -0 -0 -1 -0 -0 -1 -1 -1 -1 -1 -1 -1 -1 -2 -2 -2 -2 -2 -2 -1 -1 -1 -1 -0 -0 0 0 -0 -0 1
4 4 3 4 3 2 2 2 1 1 0 0 1 0 0 -0 1 -0 -0 -1 -1 -1 1 -1 -1 -2 -1 -2 -2 -2 -2 -1 -1 -1 -1 -0 -1 -0 -0 -0 0 0 1
4 4 4 3 2 2 2 1 1 1 1 1 1 1 1 2 1 1 1 -0 -1 -1 -1 -0 -0 -1 -1 -2 -2 -2 -2 -2 -1 -1 -0 -0 -0 -0 -0 -0 1 1 1
4 4 4 3 2 2 2 1 1 1 0 1 1 2 2 2 2 2 2 0 -1 -1 -1 -1 -0 0 -0 -1 -2 -2 -2 -2 -1 -1 -1 -1 -1 -0 -0 0 1 1 1
4 4 4 3 2 2 2 1 1 1 1 0 2 2 2 2 3 4 3 0 0 0 -0 -0 -0 -0 -0 -1 -2 -2 -2 -2 -1 -1 -1 -1 -0 0 1 1 1 2 2
4 5 4 4 3 2 2 1 1 2 2 1 3 3 5 4 4 4 3 2 1 0 0 -0 -0 0 -0 0 0 -1 -1 -1 -1 -1 -1 -1 -0 0 0 1 1 1 -0
5 4 4 3 3 2 3 1 1 2 3 1 1 3 5 7 6 5 5 2 2 2 2 1 2 1 1 0 0 0 -0 -1 -1 -1 -1 -0 -0 0 1 1 1 -0 -0
5 5 4 3 3 2 2 2 1 1 2 2 1 2 2 2 7 7 6 4 3 3 2 2 3 3 2 2 4 4 2 1 -0 -1 -0 0 1 1 1 0 -0 0 1
5 5 4 4 3 2 2 2 2 1 1 2 2 2 2 4 5 6 7 6 6 5 3 3 3 4 3 3 3 5 4 3 2 1 1 0 -0 0 0 1 1 0 -0
5 5 4 4 3 3 2 2 2 1 1 1 1 1 2 4 5 6 9 9 8 8 6 5 5 5 5 5 6 6 4 3 2 2 2 1 1 1 2 1 -1 0 1
6 6 4 4 4 3 2 2 2 2 1 1 1 1 1 3 3 5 7 8 10 10 8 8 6 5 5 5 6 7 6 4 4 3 3 3 2 2 2 2 1 2 2
6 6 5 4 4 3 2 2 2 2 1 1 1 1 2 3 3 3 5 7 9 10 10 10 9 7 6 6 8 8 6 5 4 3 3 3 3 3 4 4 3 3 3
6 6 5 4 4 3 3 2 3 3 2 1 1 1 2 2 2 4 4 4 6 9 11 10 10 8 7 6 7 6 6 7 5 5 5 4 4 4 4 5 4 4 4
7 6 5 4 4 3 3 3 3 3 3 2 2 2 2 2 2 2 3 3 4 7 12 10 10 9 8 9 9 8 8 9 7 6 5 5 5 5 5 5 4 4 5
6 6 5 5 4 4 4 3 3 3 3 3 3 2 2 3 4 3 3 4 5 7 11 10 9 9 9 9 9 8 8 8 8 8 7 7 6 6 6 6 5 6 6
6 6 6 5 4 4 4 4 4 4 4 3 3 3 3 4 4 4 3 5 6 7 9 11 11 11 11 10 10 10 10 9 9 8 8 8 8 8 8 8 8 7 8
7 6 6 6 5 4 4 4 4 4 4 3 3 3 4 4 5 5 4 5 6 7 8 10 12 11 12 11 12 11 11 11 10 10 9 9 9 9 10 9 10 9 9
7 6 6 6 5 4 4 4 4 4 4 4 3 3 4 5 5 5 5 5 6 7 9 10 12 12 12 12 12 13 14 13 13 12 11 11 11 10 10 10 11 11 10
7 6 6 6 5 5 4 3 3 3 4 4 4 3 3 6 9 7 5 5 6 8 9 11 12 12 13 14 14 14 14 14 14 13 13 13 13 13 12 12 13 12 11
7 7 6 5 5 5 7 8 5 3 4 4 5 4 5 11 9 9 8 7 6 8 9 10 11 12 12 12 13 14 14 15 15 13 13 14 13 13 13 13 12 11 11
7 6 5 5 5 5 8 8 9 4 4 4 4 5 7 7 9 7 9 9 8 8 7 8 9 10 12 12 13 14 14 13 14 14 13 15 13 14 14 13 12 12 12
7 6 5 5 5 5 8 9 10 5 4 4 4 5 6 7 7 8 8 8 7 6 7 6 7 8 10 11 12 12 13 15 15 15 14 15 14 15 14 15 13 12 13
7 6 5 5 6 5 9 10 9 6 5 4 4 5 6 7 9 10 8 9 10 10 8 8 8 9 9 10 11 13 15 15 17 16 15 15 15 16 15 14 14 12 12
7 8 7 6 9 6 9 9 9 7 7 8 6 6 12 7 10 10 8 11 12 11 11 11 11 10 10 11 12 11 13 14 15 16 15 15 16 16 18 15 16 15 14